DW4852 Weather Reports


Display with metric or nautical units.
time (UTC)temp
F
wind
direction
speed
MPH
gust
MPH
rain 1hr
in
rain 24hr
in
rain mn
in
humidity
%
barometer
mb
20181120074819 34 303 1.0 6.0 0.00 0.00 0.00 95 1018.7
20181120073209 34 288 2.0 5.0 0.00 0.00 0.00 95 1018.8
20181120071628 34 287 1.0 5.0 0.00 0.00 0.00 95 1018.7
20181120070149 34 273 0.0 5.0 0.00 0.00 0.00 95 1018.7
20181120064559 34 342 0.0 5.0 0.00 0.00 0.00 95 1018.7
20181120063117 33 259 1.0 4.0 0.00 0.00 0.00 95 1018.6
20181120061705 33 349 0.0 3.0 0.00 0.00 0.00 95 1018.7
20181120060044 33 266 0.0 3.0 0.00 0.00 0.00 95 1018.7
20181120054551 33 260 0.0 2.0 0.00 0.00 0.00 94 1018.7
20181120053133 33 269 0.0 4.0 0.00 0.00 0.00 94 1018.6
20181120051555 33 260 0.0 3.0 0.00 0.00 0.00 94 1018.7
20181120050050 33 294 1.0 3.0 0.00 0.00 0.00 94 1018.7
20181120044611 33 287 0.0 2.0 0.00 0.00 0.00 94 1018.7
20181120043123 33 274 0.0 2.0 0.00 0.00 0.00 93 1018.6
20181120041535 33 279 1.0 4.0 0.00 0.00 0.00 93 1018.7
20181120040053 33 249 0.0 4.0 0.00 0.00 0.00 92 1018.8
20181120034611 33 269 0.0 3.0 0.00 0.00 0.00 92 1018.9
20181120033037 33 278 3.0 8.0 0.00 0.00 0.00 91 1018.9
20181120031607 34 273 0.0 4.0 0.00 0.00 0.00 90 1018.8
20181120030113 34 287 0.0 4.0 0.00 0.00 0.00 90 1018.7
20181120024539 34 256 1.0 3.0 0.00 0.00 0.00 89 1018.6
20181120023032 35 286 0.0 4.0 0.00 0.00 0.00 89 1018.6
20181120021525 35 303 0.0 2.0 0.00 0.00 0.00 88 1018.5
20181120020031 35 281 0.0 2.0 0.00 0.00 0.00 88 1018.4
20181120014525 34 273 0.0 1.0 0.00 0.00 0.00 88 1018.2
20181120013020 34 243 0.0 1.0 0.00 0.00 0.00 88 1018.2
20181120011529 34 233 0.0 1.0 0.00 0.00 0.00 87 1017.9
20181120010041 34 284 0.0 3.0 0.00 0.00 0.00 88 1018.2
20181120004540 34 266 0.0 1.0 0.00 0.00 0.00 88 1018.1
20181120003059 34 273 0.0 2.0 0.00 0.00 0.00 88 1018.1
20181120001524 34 278 0.0 2.0 0.00 0.00 0.00 89 1018.0
20181120000038 34 271 0.0 1.0 0.00 0.00 0.00 89 1018.2
20181119234536 34 300 0.0 3.0 0.00 0.00 0.00 89 1018.1
20181119233030 34 263 0.0 2.0 0.00 0.00 0.00 89 1018.0
20181119231605 35 284 0.0 1.0 0.00 0.00 0.00 88 1017.8
20181119230024 35 281 0.0 3.0 0.00 0.00 0.00 88 1017.4
20181119224510 35 263 0.0 1.0 0.00 0.00 0.00 88 1017.4
20181119223021 36 257 0.0 4.0 0.00 0.00 0.00 87 1017.4
20181119221519 36 284 0.0 3.0 0.00 0.00 0.00 87 1017.3
20181119220007 37 288 0.0 6.0 0.00 0.00 0.00 86 1017.2
20181119214511 37 298 0.0 2.0 0.00 0.00 0.00 86 1017.2
20181119213005 38 288 0.0 5.0 0.00 0.00 0.00 85 1017.3
20181119211503 37 293 0.0 1.0 0.00 0.00 0.00 86 1017.1
20181119210002 37 298 0.0 1.0 0.00 0.00 0.00 87 1017.0
20181119204502 38 277 0.0 5.0 0.00 0.00 0.00 86 1016.9
20181119203147 38 272 0.0 2.0 0.00 0.00 0.00 86 1016.9
20181119201731 38 286 0.0 7.0 0.00 0.00 0.00 86 1017.0
20181119194819 38 314 0.0 4.0 0.00 0.00 0.00 86 1016.8
20181119193142 39 281 0.0 6.0 0.00 0.00 0.00 85 1016.9
20181119191709 39 281 0.0 3.0 0.00 0.00 0.00 86 1016.8
20181119190158 39 298 0.0 2.0 0.00 0.00 0.00 85 1016.8
20181119184742 39 228 0.0 0.0 0.00 0.00 0.00 85 1016.8
20181119183241 38 328 0.0 0.0 0.00 0.00 0.00 87 1016.9
20181119181632 38 306 0.0 1.0 0.00 0.00 0.00 87 1017.1
20181119180205 38 274 0.0 2.0 0.00 0.00 0.00 86 1017.4
20181119174630 38 240 0.0 1.0 0.00 0.00 0.00 88 1017.5
20181119173151 38 3 0.0 0.0 0.00 0.00 0.00 88 1017.7
20181119171644 37 139 0.0 0.0 0.00 0.00 0.00 89 1017.9
20181119170129 36 18 0.0 1.0 0.00 0.00 0.00 90 1018.2
20181119164549 36 300 1.0 3.0 0.00 0.00 0.00 90 1018.6
20181119163143 36 356 0.0 1.0 0.00 0.00 0.00 91 1018.7
20181119161618 36 277 0.0 0.0 0.00 0.00 0.00 90 1018.8
20181119160105 36 246 0.0 0.0 0.00 0.00 0.00 91 1019.0
20181119154540 36 35 0.0 2.0 0.00 0.00 0.00 91 1018.8
20181119153119 36 12 0.0 1.0 0.00 0.00 0.00 92 1018.9
20181119151620 35 22 0.0 0.0 0.00 0.00 0.00 92 1019.0
20181119150031 35 30 0.0 2.0 0.00 0.00 0.00 92 1019.0
20181119144605 35 69 0.0 0.0 0.00 0.00 0.00 92 1019.0
20181119143029 35 60 0.0 2.0 0.00 0.00 0.00 92 1019.1
20181119141546 35 22 0.0 2.0 0.00 0.00 0.00 92 1019.2
20181119140026 35 33 1.0 3.0 0.00 0.00 0.00 92 1019.4
20181119134534 35 58 0.0 0.0 0.00 0.00 0.00 92 1019.4
20181119133022 35 27 0.0 3.0 0.00 0.00 0.00 92 1019.3
20181119131523 35 26 0.0 2.0 0.00 0.00 0.00 92 1019.4
20181119130015 35 22 0.0 0.0 0.00 0.00 0.00 92 1019.2
20181119124517 34 22 0.0 0.0 0.00 0.00 0.00 92 1019.4
20181119123017 34 131 0.0 0.0 0.00 0.00 0.00 92 1019.6
20181119121511 35 131 0.0 2.0 0.00 0.00 0.00 91 1019.5
20181119120009 34 125 0.0 1.0 0.00 0.00 0.00 91 1019.6
20181119114518 34 66 0.0 0.0 0.00 0.00 0.00 91 1019.8
20181119113006 34 129 0.0 2.0 0.00 0.00 0.00 92 1019.7
20181119111504 34 136 0.0 1.0 0.00 0.00 0.00 92 1019.8
20181119110010 34 125 0.0 0.0 0.00 0.00 0.00 92 1019.9
20181119104501 34 125 0.0 0.0 0.00 0.00 0.00 92 1020.1
20181119103323 34 77 0.0 0.0 0.00 0.00 0.00 92 1020.1
20181119101709 34 77 0.0 3.0 0.00 0.00 0.00 92 1020.1
20181119100205 34 8 0.0 0.0 0.00 0.00 0.00 92 1020.2
20181119094615 34 33 0.0 0.0 0.00 0.00 0.00 93 1020.3
20181119093151 34 46 0.0 1.0 0.00 0.00 0.00 93 1020.4
20181119091632 34 20 0.0 1.0 0.00 0.00 0.00 93 1020.4
20181119090156 34 40 0.0 0.0 0.00 0.00 0.00 92 1020.5
20181119084712 34 58 0.0 0.0 0.00 0.00 0.00 92 1020.6
20181119083305 34 20 0.0 0.0 0.00 0.00 0.00 93 1021.0
20181119081618 34 107 0.0 0.0 0.00 0.00 0.00 92 1020.9
20181119080133 34 114 0.0 2.0 0.00 0.00 0.00 92 1020.9